K2MST Weather Reports


Display with metric or nautical units.
time (UTC)temp
F
wind
direction
speed
MPH
gust
MPH
rain 1hr
in
rain 24hr
in
rain mn
in
humidity
%
barometer
mb
20260507000017 47 248 1.0 3.0 0.00 0.84 0.64 84 1008.9
20260506235037 47 248 2.0 5.0 0.00 0.84 0.64 85 1009.1
20260506234017 47 225 1.0 2.0 0.00 0.84 0.64 82 1008.6
20260506233017 48 293 3.0 7.0 0.00 0.84 0.64 82 1008.8
20260506232017 47 225 1.0 3.0 0.00 0.84 0.64 84 1008.2
20260506231037 47 225 1.0 3.0 0.00 0.84 0.64 83 1007.9
20260506230037 47 225 2.0 4.0 0.00 0.84 0.64 82 1008.0
20260506225018 48 315 1.0 4.0 0.00 0.84 0.64 82 1008.1
20260506224017 48 248 1.0 4.0 0.00 0.84 0.64 82 1008.2
20260506223017 48 293 3.0 5.0 0.00 0.84 0.64 82 1008.4
20260506222017 48 293 3.0 5.0 0.00 0.84 0.64 82 1008.6
20260506221017 48 293 3.0 9.0 0.00 0.84 0.64 81 1008.6
20260506220037 48 293 3.0 7.0 0.00 0.84 0.64 82 1008.4
20260506215017 48 293 3.0 5.0 0.00 0.84 0.64 82 1008.3
20260506214017 48 293 5.0 8.0 0.00 0.84 0.64 82 1008.1
20260506213037 48 293 3.0 6.0 0.00 0.84 0.64 83 1008.2
20260506212039 47 315 3.0 7.0 0.00 0.84 0.64 83 1008.0
20260506211019 47 293 4.0 10.0 0.00 0.88 0.64 84 1008.1
20260506210019 47 293 5.0 11.0 0.00 0.89 0.64 85 1008.0
20260506205019 47 315 4.0 10.0 0.00 0.89 0.64 85 1007.8
20260506204018 47 293 5.0 11.0 0.00 0.91 0.64 86 1007.7
20260506203019 47 315 4.0 10.0 0.00 0.91 0.64 86 1007.6
20260506202019 47 338 4.0 7.0 0.00 0.91 0.64 86 1007.4
20260506201018 46 338 3.0 9.0 0.00 0.91 0.64 87 1007.4
20260506200019 46 338 6.0 11.0 0.00 0.91 0.64 87 1007.4
20260506195018 46 293 5.0 11.0 0.00 0.91 0.64 88 1007.5
20260506194018 46 293 5.0 12.0 0.00 0.91 0.64 88 1007.5
20260506193018 46 293 4.0 10.0 0.00 0.91 0.64 89 1007.5
20260506192018 47 293 4.0 7.0 0.00 0.91 0.64 89 1007.2
20260506191018 47 293 3.0 6.0 0.00 0.91 0.64 89 1007.1
20260506190019 47 293 4.0 9.0 0.01 0.91 0.64 89 1007.0
20260506185018 46 293 3.0 6.0 0.01 0.91 0.64 89 1007.2
20260506184018 46 315 5.0 10.0 0.01 0.91 0.64 89 1007.0
20260506183018 47 338 5.0 10.0 0.01 0.93 0.64 90 1006.9
20260506182018 47 315 5.0 10.0 0.01 0.94 0.64 89 1006.7
20260506181018 47 315 4.0 8.0 0.01 0.97 0.64 90 1006.6
20260506180018 47 338 4.0 10.0 0.00 0.97 0.63 89 1006.4
20260506175038 47 338 2.0 7.0 0.00 0.97 0.63 89 1006.3
20260506174020 47 293 3.0 7.0 0.00 0.97 0.63 90 1006.4
20260506173058 47 338 3.0 5.0 0.01 0.97 0.63 89 1006.3
20260506172018 47 315 2.0 4.0 0.01 0.97 0.63 89 1006.1
20260506171018 47 338 2.0 5.0 0.02 0.97 0.63 90 1006.1
20260506170018 47 338 2.0 5.0 0.03 0.97 0.63 90 1006.1
20260506165018 46 338 4.0 7.0 0.05 0.97 0.63 90 1006.1
20260506164018 46 338 2.0 4.0 0.07 0.97 0.63 91 1006.3
20260506163038 46 315 3.0 5.0 0.06 0.96 0.62 90 1006.4
20260506162038 46 293 2.0 6.0 0.07 0.96 0.62 90 1006.3
20260506161018 46 338 3.0 6.0 0.07 0.95 0.61 90 1006.4
20260506160018 46 338 4.0 6.0 0.06 0.94 0.60 90 1006.5
20260506155018 46 315 3.0 7.0 0.04 0.92 0.58 90 1006.6
20260506154018 46 338 2.0 5.0 0.03 0.90 0.56 90 1006.6
20260506153017 46 338 2.0 4.0 0.03 0.90 0.56 89 1006.8
20260506152018 46 338 1.0 2.0 0.03 0.89 0.55 89 1006.4
20260506151018 46 23 2.0 3.0 0.02 0.88 0.54 89 1006.5
20260506150037 46 0 1.0 3.0 0.03 0.88 0.54 89 1006.2
20260506145058 46 45 2.0 6.0 0.03 0.88 0.54 89 1006.0
20260506144017 46 45 3.0 5.0 0.04 0.87 0.53 89 1006.1
20260506143018 46 0.0 2.0 0.06 0.87 0.53 90 1006.1
20260506142017 45 0 3.0 4.0 0.07 0.86 0.52 90 1006.2
20260506141017 45 338 2.0 4.0 0.09 0.86 0.52 90 1006.3
20260506140017 45 23 3.0 6.0 0.11 0.85 0.51 90 1006.3
20260506135017 45 338 2.0 5.0 0.14 0.85 0.51 90 1006.4
20260506134017 45 338 1.0 4.0 0.14 0.83 0.49 90 1006.4
20260506133017 45 23 1.0 3.0 0.14 0.81 0.47 90 1006.4
20260506132018 45 23 3.0 5.0 0.14 0.79 0.45 90 1006.5
20260506131017 45 338 3.0 7.0 0.14 0.77 0.43 90 1006.5
20260506130017 45 338 3.0 7.0 0.12 0.74 0.40 90 1006.5
20260506125017 45 338 4.0 7.0 0.10 0.71 0.37 90 1006.5
20260506124017 45 338 3.0 5.0 0.08 0.69 0.35 90 1006.4
20260506123017 45 23 4.0 9.0 0.07 0.67 0.33 90 1006.3
20260506122017 45 23 3.0 5.0 0.06 0.65 0.31 90 1006.3
20260506121017 45 23 5.0 10.0 0.06 0.63 0.29 90 1006.4
20260506120018 46 0 3.0 5.0 0.08 0.62 0.28 90 1006.3
20260506115019 46 338 3.0 7.0 0.09 0.61 0.27 90 1006.3
20260506114019 46 338 3.0 6.0 0.11 0.61 0.27 90 1006.5
20260506113019 46 338 3.0 5.0 0.11 0.60 0.26 90 1006.5
20260506112039 46 338 1.0 4.0 0.11 0.59 0.25 90 1006.7
20260506111019 46 338 2.0 4.0 0.10 0.57 0.23 90 1006.9
20260506110019 46 23 2.0 5.0 0.07 0.54 0.20 89 1006.6
20260506105018 46 23 1.0 2.0 0.06 0.52 0.18 89 1006.7
20260506104018 46 338 3.0 5.0 0.05 0.50 0.16 89 1006.5
20260506103039 46 45 1.0 4.0 0.05 0.49 0.15 89 1006.5
20260506102019 46 68 1.0 4.0 0.05 0.48 0.14 89 1006.4
20260506101038 45 45 1.0 4.0 0.05 0.47 0.13 88 1006.5
20260506100018 45 90 1.0 3.0 0.06 0.47 0.13 89 1006.6
20260506095059 45 45 5.0 9.0 0.05 0.46 0.12 88 1006.5
20260506094039 45 338 2.0 5.0 0.05 0.45 0.11 89 1006.7
20260506093018 46 23 3.0 6.0 0.05 0.44 0.10 88 1007.0
20260506092018 46 23 4.0 7.0 0.05 0.43 0.09 88 1007.1
20260506091018 46 23 4.0 10.0 0.05 0.42 0.08 88 1007.1
20260506090059 46 23 4.0 11.0 0.04 0.41 0.07 87 1007.2
20260506085018 46 45 5.0 11.0 0.05 0.41 0.07 88 1007.1
20260506084038 46 23 5.0 12.0 0.04 0.40 0.06 88 1007.1
20260506083018 47 23 6.0 12.0 0.03 0.39 0.05 88 1007.1
20260506082018 48 23 7.0 13.0 0.02 0.38 0.04 88 1007.1
20260506081038 49 23 4.0 10.0 0.01 0.37 0.03 89 1006.9
20260506073018 49 68 2.0 4.0 0.00 0.38 0.02 88 1006.6
20260506072018 49 68 3.0 6.0 0.00 0.38 0.02 87 1006.5
20260506071018 49 45 1.0 4.0 0.00 0.38 0.02 88 1006.7
20260506062018 49 90 2.0 7.0 0.02 0.38 0.02 88 1007.3
20260506061017 50 113 2.0 5.0 0.02 0.38 0.02 87 1007.2
20260506051017 49 68 3.0 5.0 0.00 0.36 0.00 88 1008.0
20260506045037 49 90 2.0 5.0 0.00 0.36 0.00 89 1008.4
20260506044017 49 68 2.0 5.0 0.01 0.36 0.00 89 1008.1
20260506043037 49 90 1.0 5.0 0.02 0.36 0.00 89 1008.3
20260506042017 49 0.0 2.0 0.03 0.36 0.00 89 1008.6
20260506041017 49 68 3.0 7.0 0.04 0.36 0.00 89 1008.2
20260506040017 49 90 2.0 4.0 0.05 0.36 0.36 89 1008.5
20260506035018 49 45 3.0 9.0 0.06 0.36 0.36 89 1008.3
20260506034017 49 90 2.0 6.0 0.06 0.35 0.35 89 1009.0
20260506033017 49 23 1.0 3.0 0.06 0.34 0.34 89 1008.8
20260506032017 49 0.0 2.0 0.07 0.33 0.33 89 1008.6
20260506031037 49 0.0 2.0 0.09 0.32 0.32 89 1008.9
20260506030017 49 338 1.0 3.0 0.09 0.31 0.31 89 1008.5
20260506025017 49 338 1.0 4.0 0.10 0.30 0.30 88 1008.6
20260506024017 50 315 1.0 3.0 0.09 0.29 0.29 88 1008.7
20260506023037 50 315 1.0 2.0 0.08 0.28 0.28 88 1008.9
20260506022017 50 338 2.0 4.0 0.07 0.26 0.26 87 1008.8
20260506021017 50 293 1.0 3.0 0.04 0.23 0.23 88 1009.3
20260506020017 50 23 2.0 5.0 0.05 0.22 0.22 87 1008.4
20260506015017 50 338 2.0 3.0 0.03 0.20 0.20 87 1008.1
20260506014017 50 23 3.0 6.0 0.03 0.20 0.20 86 1008.1
20260506013017 50 23 3.0 5.0 0.04 0.20 0.20 85 1008.6
20260506012017 50 338 4.0 6.0 0.03 0.19 0.19 84 1008.5
20260506011017 50 338 3.0 7.0 0.03 0.19 0.18 82 1008.5
20260506010022 51 293 3.0 6.0 0.01 0.17 0.17 81 1008.4
20260506005019 52 338 5.0 10.0 0.01 0.17 0.17 78 1008.1
20260506004019 54 338 7.0 14.0 0.01 0.17 0.17 71 1008.2
20260506003019 56 338 8.0 13.0 0.00 0.16 0.16 67 1008.1
20260506002019 57 338 5.0 10.0 0.00 0.16 0.16 64 1007.4
20260506001019 58 338 5.0 15.0 0.00 0.16 0.16 64 1007.4